When you browse on this site, cookies collect data to enhance your experience and personalize the content and advertising you see.
Visit our Privacy Policy to learn more. By continuing to use the site, you agree to this use of cookies and data.
  • In Spain
  • List of Countries
  • For 7 days
  • Water Temperature
  • Satellite Maps
  • Weather Map
  • Weather Widgets
  • user-avatar
    Login

    Hourly Weather Kuntaur

    Today, 23 January, Wednesday

    Time Temperature Precipitation Wind Pressure Humidity
    00:00 +25°C° 0 mm 3 mps 759 mmHg 12%
    01:00 +24°C° 0 mm 3 mps 759 mmHg 13%
    02:00 +24°C° 0 mm 3 mps 759 mmHg 14%
    03:00 +22°C° 0 mm 3 mps 759 mmHg 16%
    04:00 +21°C° 0 mm 3 mps 759 mmHg 17%
    05:00 +21°C° 0 mm 3 mps 759 mmHg 18%
    06:00 +22°C° 0 mm 3 mps 759 mmHg 18%
    07:00 +24°C° 0 mm 3 mps 760 mmHg 18%
    08:00 +25°C° 0 mm 4 mps 760 mmHg 17%
    09:00 +27°C° 0 mm 4 mps 760 mmHg 15%
    10:00 +30°C° 0 mm 4 mps 760 mmHg 12%
    11:00 +34°C° 0 mm 4 mps 759 mmHg 10%
    12:00 +35°C° 0 mm 4 mps 759 mmHg 9%
    13:00 +37°C° 0 mm 3 mps 758 mmHg 8%
    14:00 +38°C° 0 mm 3 mps 757 mmHg 7%
    15:00 +38°C° 0 mm 3 mps 757 mmHg 7%
    16:00 +37°C° 0 mm 3 mps 757 mmHg 7%
    17:00 +37°C° 0 mm 3 mps 757 mmHg 7%
    18:00 +35°C° 0 mm 3 mps 757 mmHg 9%
    19:00 +31°C° 0 mm 3 mps 758 mmHg 10%
    20:00 +29°C° 0 mm 3 mps 758 mmHg 11%
    21:00 +28°C° 0 mm 3 mps 758 mmHg 12%
    22:00 +27°C° 0 mm 3 mps 759 mmHg 14%
    23:00 +26°C° 0 mm 3 mps 759 mmHg 15%

    Tomorrow, 24 January, Thursday

    Time Temperature Precipitation Wind Pressure Humidity
    00:00 +26°C° 0 mm 3 mps 759 mmHg 16%
    01:00 +25°C° 0 mm 3 mps 759 mmHg 17%
    02:00 +24°C° 0 mm 2 mps 758 mmHg 18%
    03:00 +24°C° 0 mm 2 mps 758 mmHg 18%
    04:00 +23°C° 0 mm 2 mps 758 mmHg 19%
    05:00 +23°C° 0 mm 2 mps 758 mmHg 19%
    06:00 +24°C° 0 mm 2 mps 758 mmHg 18%
    07:00 +25°C° 0 mm 2 mps 759 mmHg 18%
    08:00 +26°C° 0 mm 3 mps 759 mmHg 17%
    09:00 +28°C° 0 mm 3 mps 759 mmHg 15%
    10:00 +30°C° 0 mm 3 mps 759 mmHg 12%
    11:00 +34°C° 0 mm 3 mps 759 mmHg 10%
    12:00 +35°C° 0 mm 3 mps 758 mmHg 10%
    13:00 +36°C° 0 mm 3 mps 757 mmHg 9%
    14:00 +37°C° 0 mm 3 mps 756 mmHg 9%
    15:00 +37°C° 0 mm 3 mps 756 mmHg 9%
    16:00 +37°C° 0 mm 3 mps 756 mmHg 10%
    17:00 +37°C° 0 mm 3 mps 756 mmHg 10%
    18:00 +34°C° 0 mm 3 mps 756 mmHg 12%
    19:00 +31°C° 0 mm 3 mps 757 mmHg 13%
    20:00 +29°C° 0 mm 2 mps 758 mmHg 15%
    21:00 +28°C° 0 mm 2 mps 758 mmHg 16%
    22:00 +27°C° 0 mm 3 mps 758 mmHg 16%
    23:00 +27°C° 0 mm 3 mps 758 mmHg 17%

    Day after tomorrow, 25 January, Friday

    Time Temperature Precipitation Wind Pressure Humidity
    00:00 +26°C° 0 mm 3 mps 758 mmHg 18%
    01:00 +25°C° 0 mm 3 mps 758 mmHg 18%
    02:00 +24°C° 0 mm 3 mps 758 mmHg 19%
    03:00 +22°C° 0 mm 3 mps 758 mmHg 20%
    04:00 +22°C° 0 mm 3 mps 758 mmHg 22%
    05:00 +21°C° 0 mm 2 mps 758 mmHg 24%
    06:00 +22°C° 0 mm 3 mps 758 mmHg 23%
    07:00 +24°C° 0 mm 3 mps 759 mmHg 21%
    08:00 +25°C° 0 mm 3 mps 759 mmHg 20%
    09:00 +28°C° 0 mm 3 mps 759 mmHg 17%
    10:00 +30°C° 0 mm 3 mps 759 mmHg 14%
    11:00 +34°C° 0 mm 3 mps 759 mmHg 11%
    12:00 +36°C° 0 mm 3 mps 758 mmHg 11%
    13:00 +37°C° 0 mm 3 mps 757 mmHg 11%
    14:00 +38°C° 0 mm 3 mps 756 mmHg 12%
    15:00 +38°C° 0 mm 3 mps 756 mmHg 12%
    16:00 +37°C° 0 mm 3 mps 756 mmHg 12%
    17:00 +37°C° 0 mm 3 mps 756 mmHg 13%
    18:00 +35°C° 0 mm 3 mps 757 mmHg 14%
    19:00 +33°C° 0 mm 3 mps 757 mmHg 16%
    20:00 +30°C° 0 mm 2 mps 758 mmHg 18%
    21:00 +29°C° 0 mm 3 mps 758 mmHg 19%
    22:00 +28°C° 0 mm 3 mps 758 mmHg 20%
    23:00 +27°C° 0 mm 3 mps 759 mmHg 21%

    26 January, Saturday

    Time Temperature Precipitation Wind Pressure Humidity
    00:00 +26°C° 0 mm 3 mps 758 mmHg 23%
    01:00 +26°C° 0 mm 3 mps 758 mmHg 26%
    02:00 +25°C° 0 mm 3 mps 758 mmHg 29%
    03:00 +24°C° 0 mm 3 mps 758 mmHg 31%
    04:00 +22°C° 0 mm 3 mps 758 mmHg 32%
    05:00 +22°C° 0 mm 3 mps 758 mmHg 34%
    06:00 +22°C° 0 mm 3 mps 759 mmHg 32%
    07:00 +24°C° 0 mm 3 mps 759 mmHg 30%
    08:00 +25°C° 0 mm 3 mps 760 mmHg 28%
    09:00 +28°C° 0 mm 3 mps 760 mmHg 23%
    10:00 +31°C° 0 mm 3 mps 760 mmHg 18%
    11:00 +35°C° 0 mm 3 mps 759 mmHg 13%
    12:00 +36°C° 0 mm 3 mps 758 mmHg 12%
    13:00 +37°C° 0 mm 3 mps 757 mmHg 10%
    14:00 +39°C° 0 mm 3 mps 757 mmHg 9%
    15:00 +39°C° 0 mm 3 mps 756 mmHg 9%
    16:00 +39°C° 0 mm 3 mps 756 mmHg 9%
    17:00 +38°C° 0 mm 3 mps 756 mmHg 9%
    18:00 +36°C° 0 mm 3 mps 757 mmHg 10%
    19:00 +34°C° 0 mm 3 mps 758 mmHg 11%
    20:00 +31°C° 0 mm 3 mps 758 mmHg 13%
    21:00 +30°C° 0 mm 3 mps 758 mmHg 12%
    22:00 +29°C° 0 mm 3 mps 759 mmHg 12%
    23:00 +28°C° 0 mm 3 mps 759 mmHg 12%

    27 January, Sunday

    Time Temperature Precipitation Wind Pressure Humidity
    00:00 +27°C° 0 mm 3 mps 759 mmHg 13%
    01:00 +26°C° 0 mm 3 mps 758 mmHg 13%
    02:00 +25°C° 0 mm 3 mps 758 mmHg 14%
    03:00 +25°C° 0 mm 3 mps 758 mmHg 14%
    04:00 +25°C° 0 mm 3 mps 758 mmHg 14%
    05:00 +24°C° 0 mm 3 mps 758 mmHg 13%
    06:00 +25°C° 0 mm 3 mps 759 mmHg 12%
    07:00 +26°C° 0 mm 4 mps 759 mmHg 11%
    08:00 +27°C° 0 mm 4 mps 760 mmHg 10%
    09:00 +30°C° 0 mm 4 mps 760 mmHg 8%
    10:00 +34°C° 0 mm 4 mps 760 mmHg 7%
    11:00 +37°C° 0 mm 4 mps 759 mmHg 5%
    12:00 +38°C° 0 mm 4 mps 758 mmHg 5%
    13:00 +40°C° 0 mm 4 mps 757 mmHg 5%
    14:00 +42°C° 0 mm 4 mps 756 mmHg 5%
    15:00 +41°C° 0 mm 4 mps 756 mmHg 5%
    16:00 +41°C° 0 mm 4 mps 756 mmHg 5%
    17:00 +41°C° 0 mm 4 mps 756 mmHg 6%
    18:00 +37°C° 0 mm 4 mps 757 mmHg 6%
    19:00 +35°C° 0 mm 4 mps 758 mmHg 7%
    20:00 +33°C° 0 mm 4 mps 758 mmHg 7%
    21:00 +32°C° 0 mm 4 mps 758 mmHg 7%
    22:00 +30°C° 0 mm 4 mps 759 mmHg 7%
    23:00 +29°C° 0 mm 4 mps 759 mmHg 7%

    28 January, Monday

    Time Temperature Precipitation Wind Pressure Humidity
    00:00 +29°C° 0 mm 4 mps 758 mmHg 8%
    01:00 +28°C° 0 mm 3 mps 758 mmHg 8%
    02:00 +27°C° 0 mm 3 mps 758 mmHg 8%
    03:00 +27°C° 0 mm 3 mps 758 mmHg 8%
    04:00 +26°C° 0 mm 3 mps 758 mmHg 8%
    05:00 +26°C° 0 mm 3 mps 758 mmHg 9%
    06:00 +26°C° 0 mm 3 mps 758 mmHg 8%
    07:00 +27°C° 0 mm 4 mps 758 mmHg 7%
    08:00 +28°C° 0 mm 4 mps 759 mmHg 7%
    09:00 +30°C° 0 mm 4 mps 759 mmHg 6%
    10:00 +33°C° 0 mm 4 mps 759 mmHg 5%
    11:00 +35°C° 0 mm 4 mps 759 mmHg 4%
    12:00 +37°C° 0 mm 5 mps 758 mmHg 4%
    13:00 +39°C° 0 mm 5 mps 757 mmHg 4%
    14:00 +40°C° 0 mm 5 mps 756 mmHg 4%
    15:00 +40°C° 0 mm 5 mps 756 mmHg 4%
    16:00 +40°C° 0 mm 5 mps 756 mmHg 4%
    17:00 +39°C° 0 mm 5 mps 756 mmHg 4%
    18:00 +36°C° 0 mm 4 mps 756 mmHg 5%
    19:00 +34°C° 0 mm 4 mps 757 mmHg 5%
    20:00 +31°C° 0 mm 3 mps 758 mmHg 6%
    21:00 +30°C° 0 mm 3 mps 758 mmHg 6%
    22:00 +29°C° 0 mm 3 mps 758 mmHg 6%
    23:00 +28°C° 0 mm 3 mps 758 mmHg 7%
    Show more